ZL1CTS-13 Weather Reports


time (UTC)temp
C
wind
direction
speed
KPH
gust
KPH
rain 1hr
cm
rain 24hr
cm
rain mn
cm
humidity
%
barometer
mb
20260503232004 17 329 1.6 4.8 0.00 0.00 0.00 69 1025.3
20260503231004 17 191 1.6 8.0 0.00 0.00 0.00 70 1025.5
20260503230003 17 228 1.6 4.8 0.00 0.00 0.00 71 1025.4
20260503225004 17 90 0.0 1.6 0.00 0.00 0.00 74 1025.4
20260503224004 17 185 0.0 3.2 0.00 0.00 0.00 76 1025.2
20260503223004 17 205 0.0 3.2 0.00 0.00 0.00 78 1025.4
20260503222004 16 90 0.0 3.2 0.00 0.00 0.00 82 1025.4
20260503221004 16 201 1.6 4.8 0.00 0.00 0.00 85 1025.4
20260503220004 15 222 1.6 3.2 0.00 0.00 0.00 90 1025.4
20260503215004 15 270 1.6 3.2 0.00 0.00 0.00 90 1025.5
20260503214004 15 351 0.0 4.8 0.00 0.00 0.00 92 1025.4
20260503213003 15 135 0.0 1.6 0.00 0.00 0.00 96 1025.3
20260503212004 15 56 0.0 1.6 0.00 0.00 0.00 98 1025.5
20260503211004 14 45 0.0 1.6 0.00 0.00 0.00 98 1025.4
20260503210005 13 0 1.6 1.6 0.00 0.00 0.00 99 1025.3
20260503205004 13 45 0.0 1.6 0.00 0.00 0.00 99 1025.3
20260503204004 13 76 0.0 1.6 0.00 0.00 0.00 99 1025.2
20260503203003 13 90 0.0 1.6 0.00 0.00 0.00 99 1025.3
20260503202004 12 45 0.0 1.6 0.00 0.00 0.00 97 1025.0
20260503201004 12 0 0.0 1.6 0.00 0.00 0.00 97 1025.0
20260503200004 12 197 0.0 3.2 0.00 0.00 0.00 97 1024.9
20260503195004 11 180 0.0 1.6 0.00 0.00 0.00 98 1024.8
20260503194003 11 45 0.0 3.2 0.00 0.00 0.00 98 1024.8
20260503193004 11 0 0.0 1.6 0.00 0.00 0.00 98 1024.6
20260503192004 11 4 0.0 1.6 0.00 0.00 0.00 98 1024.6
20260503191004 11 90 0.0 1.6 0.00 0.00 0.00 98 1024.4
20260503190003 11 71 0.0 1.6 0.00 0.00 0.00 98 1024.3
20260503185004 11 153 0.0 1.6 0.00 0.00 0.00 98 1024.3
20260503184003 11 123 0.0 1.6 0.00 0.00 0.00 98 1024.1
20260503183004 11 0 0.0 1.6 0.00 0.00 0.00 98 1024.2
20260503182005 11 135 0.0 3.2 0.00 0.00 0.00 98 1024.0
20260503181004 11 158 0.0 3.2 0.00 0.00 0.00 98 1024.1
20260503180004 11 160 0.0 1.6 0.00 0.00 0.00 98 1024.0
20260503175003 11 135 0.0 1.6 0.00 0.00 0.00 98 1024.0
20260503174007 11 90 0.0 3.2 0.00 0.00 0.00 98 1024.0
20260503173006 11 90 0.0 1.6 0.00 0.00 0.00 98 1023.9
20260503172006 11 0 0.0 1.6 0.00 0.00 0.00 98 1024.2
20260503171006 11 90 1.6 4.8 0.00 0.00 0.00 98 1024.2
20260503151004 10 90 0.0 0.0 0.00 0.00 0.00 99 1024.6
20260503131004 8 135 0.0 0.0 0.00 0.00 0.00 99 1025.1
20260503081003 10 153 0.0 4.8 0.00 0.00 0.00 96 1024.0
20260503072004 11 132 1.6 1.6 0.00 0.00 0.00 94 1024.1
20260503071004 11 135 0.0 3.2 0.00 0.00 0.00 94 1024.0
20260503055004 13 90 0.0 1.6 0.00 0.00 0.00 80 1023.9
20260503054004 15 90 1.6 1.6 0.00 0.00 0.00 75 1023.9
20260503053004 17 139 0.0 0.0 0.00 0.00 0.00 69 1023.7
20260503052003 19 122 0.0 0.0 0.00 0.00 0.00 66 1023.9
20260503051004 20 225 0.0 0.0 0.00 0.00 0.00 64 1023.7
20260503050005 20 257 0.0 0.0 0.00 0.00 0.00 64 1023.7
20260503045004 20 292 0.0 1.6 0.00 0.00 0.00 63 1023.7
20260503044004 20 270 0.0 3.2 0.00 0.00 0.00 63 1023.8
20260503043004 20 270 1.6 4.8 0.00 0.00 0.00 62 1023.9
20260503042003 20 321 1.6 8.0 0.00 0.00 0.00 61 1023.9
20260503041004 20 288 1.6 8.0 0.00 0.00 0.00 61 1023.9
20260503040004 21 241 1.6 4.8 0.00 0.00 0.00 60 1023.8
20260503035003 21 348 1.6 4.8 0.00 0.00 0.00 59 1024.0
20260503034004 20 283 1.6 4.8 0.00 0.00 0.00 63 1023.9
20260503033004 20 315 3.2 9.7 0.00 0.00 0.00 60 1023.9
20260503032004 21 306 3.2 9.7 0.00 0.00 0.00 59 1024.1
20260503031005 21 344 1.6 8.0 0.00 0.00 0.00 61 1024.2
20260503030005 20 74 3.2 8.0 0.00 0.00 0.00 61 1024.2
20260503025004 21 331 1.6 4.8 0.00 0.00 0.00 64 1024.2
20260503024004 20 205 1.6 12.9 0.00 0.00 0.00 65 1024.3
20260503023003 20 297 3.2 9.7 0.00 0.00 0.00 65 1024.2
20260503022004 19 128 1.6 8.0 0.00 0.00 0.00 64 1024.4
20260503021004 19 321 3.2 9.7 0.00 0.00 0.00 66 1024.5
20260503020004 20 275 3.2 9.7 0.00 0.00 0.00 64 1024.2
20260503015003 20 327 3.2 9.7 0.00 0.00 0.00 65 1024.4
20260503014004 19 261 4.8 12.9 0.00 0.00 0.00 65 1024.4
20260503013004 19 20 4.8 9.7 0.00 0.00 0.00 67 1024.3
20260503012004 19 356 6.4 11.3 0.00 0.00 0.00 64 1024.3
20260503011004 19 334 3.2 9.7 0.00 0.00 0.00 64 1024.4
20260503010004 19 238 3.2 9.7 0.00 0.00 0.00 66 1024.5
20260503005004 19 341 3.2 9.7 0.00 0.00 0.00 66 1024.5
20260503004004 18 255 3.2 11.3 0.00 0.00 0.00 65 1024.8
20260503003004 19 10 3.2 9.7 0.00 0.00 0.00 67 1024.9
20260503002004 18 312 4.8 9.7 0.00 0.00 0.00 69 1024.9
20260503001004 19 313 3.2 9.7 0.00 0.00 0.00 69 1024.9
20260503000003 19 239 3.2 9.7 0.00 0.00 0.00 70 1025.1
20260502235003 19 304 3.2 8.0 0.00 0.00 0.00 70 1025.1
20260502234003 18 0 3.2 9.7 0.00 0.00 0.00 71 1025.2
20260502233003 18 252 3.2 8.0 0.00 0.00 0.00 70 1025.1